Location: Asheville, NC
(35.6000°N, 82.5500°W)
Time: 11:04:07
(UTC-04:00)

KKS-1 - Pass Details

Date: 16 February 2018
Orbit: 637 x 651 km, 98.4° (Epoch: 24 May)

Event Time Altitude Azimuth Distance (km) Brightness Sun altitude
Rises 19:27:57 0° 347° (NNW) 2,972 ? -15.8°
Reaches altitude 10° 19:31:56 10° 311° (NW) 2,056 ? -16.6°
Maximum altitude 19:33:03 11° 296° (WNW) 1,997 ? -16.8°
Drops below altitude 10° 19:34:11 10° 282° (WNW) 2,053 ? -17.1°
Sets 19:38:09 0° 246° (WSW) 2,957 ? -17.9°
